www.pogodaiklimat.ru

Погода и климат >> Архив погоды >> Венгрия >> Eger


ПОГОДА в Eger

  • Прогноз погоды в Eger
  • Монитор погоды в Eger
  • Климат города

АРХИВ ПОГОДЫ в Eger

Время (UTC), дата Ветер
(напр.,м/с)
 
Видим.   Явления Облачность Т
(С)
Тd
(С)
f
(%)
Тe
(С)
Тes
(С)
Комфортность P
(гПа)
Po
(гПа)
Тmin
(С)
Tmax
(С)
R
(мм)
R24
(мм)
S
(см)
01 11.10 С 1 н/о н/о +11.5 +8.7 83 +11 +11 1025.9 998.4
02 11.10 С 1 н/о н/о +11.0 +8.4 84 +11 +11 1025.7 998.2
03 11.10 С 1 10 км ясно +11.0 +8.4 84 +11 +11 1025.5 998.0
04 11.10 СЗ 1 10 км ясно +10.4 +8.3 87 +10 +10 1025.6 998.0
05 11.10 С 1 25 км ясно +10.3 +8.2 87 +10 +10 1025.5 997.9
06 11.10 СЗ 1 30 км ясно +11.1 +8.5 84 +11 +11 1025.8 998.3 +10.0 0
07 11.10 С 1 н/о н/о +14.0 +10.0 77 +14 +14 1025.8 998.6
08 11.10 З 1 н/о н/о +17.4 +9.6 60 +18 +18 1025.9 999.0
09 11.10 В 3 30 км ясно +20.6 +11.3 55 +23 +27 комфорт 1025.5 998.9
10 11.10 Ю 3 н/о н/о +22.6 +10.4 46 +24 +24 комфорт 1025.2 998.8
11 11.10 ЮВ 5
{7}
30 км ясно +22.8 +10.3 45 +25 +28 комфорт 1024.9 998.5
12 11.10 ЮВ 4 30 км ясно +23.9 +9.5 40 +25 +29 комфорт 1024.3 998.0
13 11.10 ЮВ 4
{8}
30 км ясно +23.7 +9.7 41 +25 +27 комфорт 1024.1 997.8
14 11.10 В 4
{9}
н/о н/о +22.8 +10.3 45 +25 +25 комфорт 1024.0 997.6
15 11.10 ЮВ 4
{7}
30 км ясно +21.7 +10.8 50 +24 +24 комфорт 1023.9 997.4
16 11.10 ЮВ 2
{7}
н/о н/о +19.3 +10.0 55 +21 +21 комфорт 1024.5 997.8
17 11.10 СВ 2 н/о н/о +17.8 +9.7 59 +18 +18 1025.0 998.1
18 11.10 СВ 3 10 км ясно +17.7 +9.8 60 +18 +18 1025.1 998.2 +24.0
19 11.10 штиль 0 н/о н/о +16.0 +10.1 68 +16 +16 1025.5 998.5
20 11.10 В 1 н/о н/о +15.3 +10.1 71 +16 +16 1026.0 998.9
21 11.10 штиль 0 н/о н/о +13.9 +9.9 77 +14 +14 1026.5 999.2
22 11.10 штиль 0 н/о н/о +12.7 +9.3 80 +12 +12 1026.7 999.3
23 11.10 С 1 н/о н/о +12.0 +8.8 81 +12 +12 1027.1 999.6
00 12.10 С 1 н/о н/о +12.1 +9.1 82 +12 +12 1027.3 999.8
01 12.10 С 1 н/о н/о +11.8 +9.0 83 +12 +12 1027.2 999.7
02 12.10 С 1 н/о н/о +11.8 +8.8 82 +12 +12 1027.0 999.5
03 12.10 С 1 10 км ясно +10.1 +8.4 89 +10 +10 1027.6 999.9
04 12.10 В 1 10 км ясно +10.1 +8.4 89 +10 +10 1028.1 1000.4
05 12.10 С 1 15 км ясно +9.4 +8.0 91 +9 +9 1028.2 1000.5
06 12.10 штиль 0 20 км ясно +9.4 +7.8 90 +9 +9 1029.1 1001.3 +8.9
07 12.10 С 1 н/о н/о +13.1 +9.5 79 +13 +13 1029.3 1001.9
08 12.10 Ю 1 н/о н/о +16.5 +9.7 64 +17 +17 1029.3 1002.2
09 12.10 З 1 30 км ясно +17.8 +9.4 58 +19 +25 1029.5 1002.5
10 12.10 З 2 н/о н/о +20.2 +8.9 48 +22 +22 комфорт 1029.3 1002.5
11 12.10 Ю 1 30 км ясно +22.0 +9.9 46 +24 +31 комфорт 1028.6 1002.0
12 12.10 З 1 30 км ясно +22.9 +9.3 42 +24 +31 комфорт 1028.0 1001.5
13 12.10 ЮЗ 1 30 км ясно +23.8 +8.6 38 +24 +29 комфорт 1027.4 1001.0
14 12.10 СВ 1 н/о н/о +23.3 +6.1 33 +24 +24 комфорт 1027.2 1000.8
15 12.10 В 2 30 км ясно +22.8 +5.7 33 +23 +24 комфорт 1027.3 1000.8
16 12.10 В 3 н/о н/о +20.0 +5.6 39 +21 +21 комфорт 1027.8 1001.1
17 12.10 СВ 3 н/о н/о +18.7 +5.5 42 +19 +19 1028.2 1001.3
18 12.10 СВ 2 30 км ясно +16.6 +5.6 48 +17 +17 1028.7 1001.6 +24.5 0
19 12.10 С 2 н/о н/о +14.1 +6.0 58 +14 +14 1029.0 1001.7
20 12.10 С 2 н/о н/о +12.6 +6.2 65 +12 +12 1029.5 1002.0
21 12.10 С 2 н/о н/о +12.4 +6.0 65 +12 +12 1029.6 1002.1
22 12.10 С 1 н/о н/о +11.7 +6.0 68 +12 +12 1029.8 1002.2
23 12.10 С 1 н/о н/о +12.4 +6.0 65 +13 +13 1029.5 1002.0
00 13.10 штиль 0 н/о н/о +11.8 +5.7 66 +11 +11 1029.7 1002.1
01 13.10 С 1 н/о н/о +11.6 +5.9 68 +12 +12 1029.7 1002.1
02 13.10 СВ 1 н/о н/о +13.0 +5.9 62 +13 +13 1029.5 1002.1
03 13.10 С 2 10 км ясно +9.0 +5.2 77 +7 +7 1030.0 1002.2
04 13.10 С 2 10 км ясно +9.4 +5.4 76 +8 +8 1030.2 1002.4
05 13.10 С 1 20 км ясно +9.2 +5.4 77 +9 +9 1030.1 1002.3
06 13.10 С 2 30 км ясно +11.0 +6.0 71 +10 +10 1030.0 1002.4 +8.5 0
07 13.10 штиль 0 н/о н/о +13.6 +7.2 65 +13 +13 1030.1 1002.7
08 13.10 З 1 н/о н/о +16.8 +6.0 49 +18 +18 1030.0 1002.9
09 13.10 Ю 1 30 км ясно +19.7 +6.4 42 +22 +27 комфорт 1029.6 1002.8
10 13.10 Ю 2 н/о н/о +21.6 +6.7 38 +22 +22 комфорт 1029.5 1002.9
11 13.10 Ю 2 30 км ясно +22.6 +6.0 34 +23 +29 комфорт 1029.0 1002.5
12 13.10 Ю 2 30 км ясно +23.4 +6.2 33 +24 +29 комфорт 1028.3 1001.8
13 13.10 Ю 2 30 км ясно +23.7 +6.0 32 +24 +27 комфорт 1027.8 1001.4
14 13.10 З 1 н/о н/о +23.5 +5.4 31 +23 +23 комфорт 1027.2 1000.8
15 13.10 ЮВ 2 30 км ясно +22.9 +5.3 32 +23 +24 комфорт 1027.0 1000.5
16 13.10 В 2 н/о н/о +19.6 +5.6 40 +21 +21 комфорт 1027.4 1000.6
17 13.10 В 2 н/о н/о +18.5 +5.7 43 +19 +19 1027.4 1000.5
18 13.10 СВ 1 15 км ясно +15.0 +6.0 55 +16 +16 1027.7 1000.5 +24.2 0
19 13.10 штиль 0 н/о н/о +13.3 +6.2 62 +13 +13 1027.8 1000.4
20 13.10 С 2 н/о н/о +12.4 +6.7 68 +12 +12 1027.6 1000.2
21 13.10 С 1 н/о н/о +12.3 +6.6 68 +12 +12 1027.6 1000.2
22 13.10 штиль 0 н/о н/о +10.7 +6.1 73 +10 +10 1027.6 1000.0
23 13.10 штиль 0 н/о н/о +12.2 +6.7 69 +12 +12 1027.7 1000.2
00 14.10 СВ 1 н/о н/о +13.3 +7.1 66 +14 +14 1027.6 1000.2
01 14.10 С 1 н/о н/о +11.5 +6.6 72 +11 +11 1027.3 999.8
02 14.10 С 1 н/о н/о +10.8 +6.6 75 +11 +11 1027.3 999.7
03 14.10 С 1 н/о н/о +10.4 +6.7 78 +10 +10 1027.1 999.5
04 14.10 С 2 10 км ясно +9.0 +6.4 84 +7 +7 1027.4 999.6
05 14.10 С 3 20 км ясно +12.0 +7.1 72 +10 +10 1026.8 999.3
06 14.10 штиль 0 25 км ясно +9.3 +6.6 83 +9 +9 1027.4 999.7 +7.5
07 14.10 ЮВ 1 н/о н/о +13.0 +7.5 69 +13 +13 1027.8 1000.4
08 14.10 СЗ 1 н/о н/о +13.7 +7.7 67 +14 +14 1027.7 1000.4
09 14.10 СЗ 1 25 км ясно +17.3 +8.4 56 +18 +24 1026.8 999.8
10 14.10 Ю 2 н/о н/о +20.6 +7.6 43 +22 +22 комфорт 1026.5 999.8
11 14.10 Ю 2 25 км ясно +21.1 +5.5 36 +22 +28 комфорт 1026.0 999.4
12 14.10 ЮЗ 1 25 км ясно +21.7 +6.0 36 +22 +28 комфорт 1025.1 998.6
13 14.10 ЮВ 2 25 км ясно +22.6 +6.8 36 +23 +27 комфорт 1024.5 998.1
14 14.10 ЮВ 3 н/о н/о +21.9 +7.7 40 +23 +23 комфорт 1024.3 997.8
15 14.10 В 3 25 км ясно +20.7 +6.6 40 +22 +22 комфорт 1024.0 997.4
16 14.10 В 3
{7}
н/о н/о +18.1 +7.5 50 +18 +18 1024.3 997.5
17 14.10 СВ 3 н/о н/о +16.8 +7.7 55 +17 +17 1024.5 997.6
18 14.10 СЗ 1 10 км ясно +14.0 +7.5 65 +14 +14 1024.6 997.4 +23.1
19 14.10 С 1 н/о н/о +12.4 +7.3 71 +13 +13 1025.0 997.6
20 14.10 С 1 н/о н/о +10.9 +6.8 76 +11 +11 1025.2 997.7
21 14.10 С 1 н/о н/о +12.0 +6.1 67 +12 +12 1025.0 997.6
22 14.10 СВ 1 н/о н/о +10.4 +5.4 71 +10 +10 1025.3 997.7
23 14.10 СЗ 1 н/о н/о +11.0 +4.7 65 +11 +11 1025.3 997.8
00 15.10 штиль 0 н/о н/о +11.1 +3.4 59 +11 +11 1025.6 998.1
01 15.10 СЗ 1 н/о н/о +9.5 +3.3 65 +9 +9 1025.6 997.9
02 15.10 штиль 0 н/о н/о +8.1 +3.2 71 +7 +7 1025.7 997.9
03 15.10 С 3 10 км ясно +7.6 +2.5 70 +5 +5 1025.6 997.8
04 15.10 С 1 10 км ясно +8.8 +2.4 64 +8 +8 1025.4 997.7
05 15.10 СЗ 1 25 км ясно +7.0 +2.1 71 +6 +6 1025.6 997.7
06 15.10 штиль 0 25 км ясно +7.7 +2.4 69 +7 +7 1025.7 997.9 +5.8 0
07 15.10 штиль 0 н/о н/о +11.6 +4.6 62 +11 +11 1025.7 998.2
08 15.10 СЗ 1 н/о н/о +13.1 +4.3 55 +13 +13 1025.5 998.2
09 15.10 ЮЗ 1 25 км ясно +16.6 +4.6 45 +18 +23 1025.2 998.2
10 15.10 Ю 2 н/о н/о +19.5 +4.4 37 +21 +21 комфорт 1024.4 997.7
11 15.10 ЮВ 3 25 км ясно +21.6 +2.8 29 +22 +27 комфорт 1023.8 997.3
12 15.10 ЮВ 3 25 км ясно +21.9 +1.5 26 +22 +26 комфорт 1023.5 997.0
13 15.10 В 2 30 км ясно +22.2 +1.3 25 +22 +25 комфорт 1022.8 996.4
14 15.10 Ю 3 н/о н/о +22.3 +0.8 24 +22 +22 комфорт 1022.5 996.1
15 15.10 ЮВ 3 30 км 1/1 2000 м
[Cu hum]
+20.5 +1.4 28 +21 +21 комфорт 1022.6 996.0
16 15.10 В 3 н/о н/о +17.1 +2.3 37 +17 +17 1023.0 996.1
17 15.10 СВ 3 н/о н/о +16.1 +2.5 40 +16 +16 1023.6 996.6
18 15.10 штиль 0 10 км ясно +13.0 +2.8 50 +13 +13 1024.0 996.7 +22.9
19 15.10 С 2 н/о н/о +12.9 +3.0 51 +12 +12 1023.8 996.5
20 15.10 С 1 н/о н/о +10.9 +2.5 56 +11 +11 1024.2 996.7
21 15.10 штиль 0 н/о н/о +10.6 +1.9 55 +10 +10 1024.2 996.7
22 15.10 штиль 0 н/о н/о +9.2 +2.1 61 +9 +9 1024.6 996.9
23 15.10 С 1 н/о н/о +10.1 +2.2 58 +10 +10 1024.4 996.8
00 16.10 С 1 н/о н/о +9.7 +1.8 58 +10 +10 1024.6 997.0
01 16.10 С 1 н/о н/о +9.5 +1.9 59 +9 +9 1024.2 996.6
02 16.10 штиль 0 н/о н/о +8.6 +2.0 63 +8 +8 1024.3 996.6
03 16.10 штиль 0 10 км ясно +8.4 +1.8 63 +8 +8 1024.3 996.6
04 16.10 штиль 0 10 км ясно +8.4 +1.5 62 +8 +8 1024.4 996.7
05 16.10 С 1 20 км ясно +7.4 +1.5 66 +7 +7 1024.7 996.9
06 16.10 штиль 0 30 км 1/1 800 м
[Cu hum]
+8.4 +1.8 63 +8 +8 1024.8 997.1 +7.2
07 16.10 штиль 0 н/о н/о +11.6 +4.1 60 +11 +11 1024.6 997.2
08 16.10 Ю 1 н/о н/о +14.9 +3.1 45 +16 +16 1024.8 997.7
09 16.10 ЮВ 2 30 км ясно +18.7 +2.9 35 +19 +24 1024.5 997.7
10 16.10 Ю 1 н/о н/о +20.2 +2.1 30 +22 +22 комфорт 1024.2 997.6
11 16.10 Ю 2 30 км 1/0
[Ci sp]
+21.9 +2.6 28 +22 +27 комфорт 1023.7 997.2
12 16.10 Ю 3 30 км 1/0
[Ci sp]
+22.7 +1.7 25 +22 +26 комфорт 1023.3 996.9
13 16.10 ЮВ 2 30 км 1/0
[Ci sp]
+22.8 +1.8 25 +22 +26 комфорт 1023.0 996.6
14 16.10 ЮВ 2 н/о н/о +22.1 +1.7 26 +22 +22 комфорт 1022.9 996.5
15 16.10 ЮВ 2 30 км 3/1 2000 м
[Cu hum Cs]
+20.0 +1.9 30 +21 +21 комфорт 1023.2 996.6
16 16.10 В 2 н/о н/о +17.5 +1.9 35 +18 +18 1023.5 996.6
17 16.10 СВ 2 н/о н/о +16.9 +2.1 37 +17 +17 1023.6 996.7
18 16.10 С 2 10 км ясно +13.0 +2.8 50 +13 +13 1024.2 996.9 +23.0
19 16.10 штиль 0 н/о н/о +12.4 +2.8 52 +12 +12 1024.1 996.8
20 16.10 В 1 н/о н/о +13.6 +2.5 47 +14 +14 1024.0 996.8
21 16.10 ЮЗ 1 н/о н/о +13.0 +2.8 50 +13 +13 1024.2 996.9
22 16.10 СВ 1 н/о н/о +12.4 +2.8 52 +13 +13 1024.0 996.7
23 16.10 штиль 0 н/о н/о +11.6 +2.6 54 +11 +11 1024.1 996.7
00 17.10 В 1 н/о н/о +13.1 +2.6 49 +14 +14 1023.8 996.5
01 17.10 С 1 н/о н/о +10.8 +2.9 58 +11 +11 1023.9 996.4
02 17.10 штиль 0 н/о н/о +11.4 +3.2 57 +11 +11 1023.7 996.3
03 17.10 штиль 0 10 км ясно +10.4 +3.0 60 +10 +10 1023.9 996.4
04 17.10 С 1 10 км ясно +10.4 +3.0 60 +10 +10 1023.8 996.3
05 17.10 С 1 25 км 1/1 900 м
[Cu hum Ci sp]
+10.5 +3.1 60 +10 +10 1023.8 996.3
06 17.10 С 1 н/о н/о +10.2 +2.8 60 +10 +10 1024.0 996.4 +8.9
07 17.10 штиль 0 н/о н/о +12.0 +4.5 60 +12 +12 1024.0 996.6
08 17.10 ЮВ 1 н/о н/о +16.3 +3.0 41 +17 +17 1023.6 996.6
09 17.10 Ю 2 25 км 3/0
[Ci sp]
+18.3 +4.5 40 +19 +23 1023.3 996.5
10 17.10 Ю 2 н/о н/о +21.6 +3.8 31 +22 +22 комфорт 1022.8 996.3
11 17.10 ЮВ 3 30 км 3/0
[Ci sp]
+22.7 +3.3 28 +23 +27 комфорт 1022.1 995.7
12 17.10 Ю 3 30 км 1/1 2000 м
[Cu hum Ci sp]
+23.1 +2.6 26 +23 +26 комфорт 1021.4 995.1
13 17.10 Ю 2 30 км 1/1 2000 м
[Cu hum Ci sp]
+23.4 +2.8 26 +23 +26 комфорт 1021.0 994.7
14 17.10 ЮВ 3 н/о н/о +22.5 +3.1 28 +22 +22 комфорт 1020.6 994.3
15 17.10 ЮВ 2 30 км 5/0
[Cs]
+20.9 +2.7 30 +22 +22 комфорт 1020.7 994.2
16 17.10 В 2 н/о н/о +18.2 +2.5 35 +19 +19 1020.9 994.2
17 17.10 С 2 н/о н/о +16.5 +3.2 41 +17 +17 1021.1 994.2
18 17.10 СЗ 1 10 км 5/0
[Cs]
+14.4 +4.1 50 +15 +15 1021.1 994.0 +23.8
19 17.10 С 2 н/о н/о +13.5 +4.1 53 +13 +13 1021.1 993.9
20 17.10 С 1 н/о н/о +12.7 +4.2 56 +13 +13 1021.3 994.1
21 17.10 СЗ 1 н/о н/о +11.5 +4.0 60 +12 +12 1021.6 994.2
22 17.10 С 2 н/о н/о +11.8 +3.8 58 +11 +11 1021.2 993.9
23 17.10 С 3 н/о н/о +11.5 +3.8 59 +10 +10 1021.0 993.7

 

Местоположение метеостанции Eger (Венгрия): широта 47.90 долгота 20.38 высота над уровнем моря 218 м.

В архиве по умолчанию представлена погода в Eger за последнюю неделю. Архивные данные за месяц целиком и за предыдущие месяцы, начиная с января 2011 года, Вы можете получить, выбрав интересующий диапазон дат из раскрывающегося списка и нажав кнопку "Ввод!".


*Определитесь, кто Вы:
робот инопланетянин человек

Внимание! Время в таблицах - всемирное. Для получения местного времени необходимо прибавить поправку, которая в Eger равна 1 ч.

Смотрите также архив погоды в соседних городах и на ближайших метеорологических станциях:

Погода в Kekesteto (Венгрия) (27 км)
Погода в Poroszlo (Венгрия) (34 км)
Погода в Miskolc (Венгрия) (37 км)
Погода в Josvafo (Венгрия) (65 км)
Погода в Lucenec (Словакия) (68 км)
Погода в Szecseny (Польша) (69 км)
Погода в Szolnok (Венгрия) (87 км)
Погода в Debrecen (Венгрия) (103 км)
Погода в Budapest (Венгрия) (104 км)
Погода в Kosice (Словакия) (106 км)

Пояснения к столбцам:

Ветер - указаны скорость ветра в м/с - средняя за 10 мин, порывы в срок и между сроками (в фигурных скобках) и направление, откуда дует ветер: С - северный, СВ - северо-восточный, В - восточный, ЮВ - юго-восточный, Ю - южный, ЮЗ - юго-западный, З - западный, СЗ - северо-западный.
Видимость - горизонтальная дальность видимости в метрах или километрах. При видимости от 1 до 10 км при отсутствии осадков обычно наблюдается дымка, при ухудшении видимости до 1 км и менее - туман. В сухую погоду видимость может ухудшаться дымом, пылью или мглою.
Явления - указаны атмосферные явления, наблюдавшиеся в срок или в последний час перед сроком; фигурными скобками обозначены явления, наблюдавшиеся между сроками (за 1-3 часа до срока); квадратными скобками обозначены град или гололедные отложения с указанием их диаметра в мм.
Облачность - указаны через наклонную черту общая и нижняя облачность в баллах и высота нижней границы облаков в метрах; квадратными скобками обозначены формы облаков: Ci - перистые, Cs - перисто-слоистые, Cc - перисто-кучевые, Ac - высококучевые, As - высокослоистые, Sc - слоисто-кучевые, Ns - слоисто-дождевые, Cu - кучевые, Cb - кучево-дождевые. Подробнее классификацию облаков см. в Атласе облаков (PDF).
T - Температура воздуха - температура, измеренная на высоте 2 м над землей.
Td - Температура точки росы - температура, при понижении до которой содержащийся в воздухе водяной пар достигнет насыщения.
f - Относительная влажность воздуха - влажноcть воздуха, измеренная на высоте 2 м над землей.
Te - Эффективная температура - температура, которую ощущает одетый по сезону человек в тени. Характеристика душности погоды. При расчете учитывается влияние влажности воздуха и скорости ветра на теплоощущения человека.
Tes - Эффективная температура на солнце - температура, которую ощущает человек, с поправкой на солнечный нагрев. Характеристика знойности погоды. Зависит от высоты солнца над горизонтом, облачности и скорости ветра. Ночью, в пасмурную погоду, а также при ветре 12 м/с и более поправка равна нулю.
P - Атмосферное давление - приведенное к уровню моря атмосферное давление.
Po - Атмосферное давление - измеренное на уровне метеостанции атмосферное давление.
Tmin - Минимальная температура - минимум температуры воздуха на высоте 2 м над землей.
Tmax - Максимальная температура - максимум температуры воздуха на высоте 2 м над землей.
R - Количество осадков - Количество выпавших осадков за период времени, мм. При наведении курсора мыши на число - период времени, за который выпало указанное количество осадков.
R24 - Количество осадков - Количество выпавших осадков за 24 часа, мм.
S - Снежный покров - Высота снежного покрова, см. При наведении курсора мыши на число - состояние снежного покрова и степень покрытия местности в баллах.